FW5449 Weather Reports


time (UTC)temp
C
wind
direction
speed
KPH
gust
KPH
rain 1hr
cm
rain 24hr
cm
rain mn
cm
humidity
%
barometer
mb
20260906070522 15 266 1.6 6.4 0.00 0.05 0.00 86 1014.6
20260906070022 15 270 1.6 4.8 0.00 0.05 0.00 86 1014.6
20260906065520 15 270 1.6 4.8 0.00 0.05 0.05 86 1014.6
20260906065016 15 270 1.6 4.8 0.00 0.05 0.05 86 1014.7
20260906064511 15 270 1.6 4.8 0.00 0.05 0.05 85 1014.7
20260906064008 15 270 1.6 4.8 0.00 0.05 0.05 85 1014.7
20260906063502 15 197 0.0 4.8 0.00 0.05 0.05 85 1014.8
20260906063002 15 197 0.0 1.6 0.00 0.05 0.05 85 1014.8
20260906062455 15 197 0.0 3.2 0.00 0.05 0.05 85 1014.8
20260906062200 15 197 0.0 4.8 0.00 0.05 0.05 85 1014.8
20260906061440 15 197 1.6 4.8 0.00 0.05 0.05 85 1014.9
20260906060940 15 197 1.6 4.8 0.00 0.05 0.05 85 1014.9
20260906060440 15 197 1.6 4.8 0.00 0.05 0.05 84 1014.9
20260906055938 15 206 1.6 4.8 0.00 0.05 0.05 84 1014.9
20260906055439 15 211 0.0 3.2 0.00 0.05 0.05 84 1014.8
20260906054940 15 339 0.0 0.0 0.00 0.05 0.05 84 1014.8
20260906054436 15 339 0.0 0.0 0.00 0.05 0.05 83 1014.9
20260906053934 15 339 0.0 0.0 0.00 0.05 0.05 82 1014.9
20260906053433 16 339 0.0 0.0 0.00 0.05 0.05 81 1014.9
20260906052937 16 339 0.0 0.0 0.00 0.05 0.05 81 1014.9
20260906052428 16 339 0.0 0.0 0.00 0.05 0.05 82 1015.0
20260906051926 16 339 0.0 0.0 0.00 0.05 0.05 81 1015.0
20260906051405 16 339 0.0 0.0 0.00 0.05 0.05 81 1015.0
20260906050851 16 339 0.0 0.0 0.00 0.05 0.05 81 1015.0
20260906050342 16 339 0.0 0.0 0.00 0.05 0.05 81 1015.1
20260906045845 16 339 0.0 0.0 0.00 0.05 0.05 80 1015.1
20260906045340 16 339 0.0 0.0 0.00 0.05 0.05 80 1015.0
20260906044832 16 339 0.0 0.0 0.00 0.05 0.05 80 1015.1
20260906044319 16 339 0.0 1.6 0.00 0.05 0.05 79 1015.1
20260906043809 16 339 0.0 3.2 0.00 0.05 0.05 79 1015.2
20260906043506 16 339 1.6 4.8 0.00 0.05 0.05 79 1015.2
20260906042741 16 339 3.2 4.8 0.00 0.05 0.05 79 1015.2
20260906042240 16 332 1.6 4.8 0.00 0.05 0.05 78 1015.2
20260906041741 17 316 1.6 4.8 0.00 0.05 0.05 78 1015.2
20260906041234 17 18 1.6 3.2 0.00 0.05 0.05 77 1015.1
20260906040731 17 18 0.0 3.2 0.00 0.05 0.05 77 1015.1
20260906040222 17 18 0.0 1.6 0.00 0.05 0.05 77 1015.2
20260906035714 17 18 0.0 1.6 0.00 0.05 0.05 76 1015.1
20260906035219 17 18 0.0 3.2 0.00 0.05 0.05 76 1015.1
20260906034935 17 18 1.6 4.8 0.00 0.05 0.05 76 1015.0
20260906034153 17 18 1.6 4.8 0.00 0.05 0.05 76 1015.0
20260906033653 17 18 1.6 3.2 0.00 0.05 0.05 75 1014.9
20260906033412 17 18 1.6 4.8 0.00 0.05 0.05 75 1014.9
20260906032652 17 18 1.6 8.0 0.00 0.05 0.05 75 1014.8
20260906032152 18 351 1.6 8.0 0.00 0.05 0.05 74 1014.8
20260906031640 18 343 3.2 8.0 0.00 0.05 0.05 74 1014.5
20260906031129 18 339 4.8 9.7 0.00 0.05 0.05 73 1014.6
20260906030619 18 353 4.8 12.9 0.00 0.05 0.05 72 1014.4
20260906030328 18 317 4.8 12.9 0.00 0.05 0.05 72 1014.4
20260906025601 18 337 6.4 11.3 0.00 0.05 0.05 71 1014.4
20260906025058 18 341 4.8 11.3 0.00 0.05 0.05 71 1014.4
20260906024558 18 332 4.8 11.3 0.00 0.05 0.05 71 1014.3
20260906024058 18 247 6.4 14.5 0.00 0.05 0.05 70 1014.3
20260906023557 19 349 8.0 16.1 0.00 0.05 0.05 70 1014.3
20260906023054 19 355 8.0 16.1 0.00 0.05 0.05 69 1014.3
20260906022554 19 351 6.4 16.1 0.00 0.05 0.05 69 1014.3
20260906022054 19 340 6.4 16.1 0.00 0.05 0.05 68 1014.3
20260906021551 19 16 6.4 14.5 0.00 0.05 0.05 67 1014.4
20260906021315 20 4 8.0 14.5 0.00 0.05 0.05 67 1014.4
20260906020551 20 8 6.4 14.5 0.00 0.08 0.05 66 1014.3
20260906020050 20 355 6.4 16.1 0.00 0.08 0.05 65 1014.4
20260906020041 20 353 6.4 17.7 0.00 0.08 0.05 63 1014.3
20260906015046 20 357 8.0 17.7 0.00 0.10 0.05 63 1014.5
20260906014547 20 347 8.0 17.7 0.00 0.10 0.05 62 1014.4
20260906014046 21 346 8.0 16.1 0.00 0.10 0.05 62 1014.4
20260906013550 21 324 8.0 16.1 0.00 0.10 0.05 61 1014.5
20260906013048 21 37 6.4 16.1 0.00 0.13 0.05 59 1014.4
20260906012546 21 344 8.0 14.5 0.00 0.13 0.05 59 1014.3
20260906012045 21 17 8.0 14.5 0.00 0.13 0.05 58 1014.3
20260906011543 22 8 8.0 14.5 0.00 0.13 0.05 57 1014.2
20260906011043 22 14 6.4 14.5 0.00 0.13 0.05 57 1014.1
20260906010541 22 22 4.8 11.3 0.00 0.13 0.05 55 1014.1
20260906010041 22 357 3.2 11.3 0.00 0.13 0.05 52 1014.1
20260906005541 22 340 3.2 6.4 0.00 0.13 0.05 50 1014.2
20260906005042 23 25 4.8 9.7 0.00 0.13 0.05 50 1014.2
20260906005017 23 343 6.4 14.5 0.00 0.13 0.05 50 1014.1
20260906004032 23 312 6.4 14.5 0.00 0.13 0.05 50 1014.1
20260906003533 23 357 4.8 14.5 0.00 0.13 0.05 49 1014.1
20260906003033 23 3 4.8 12.9 0.00 0.15 0.05 48 1014.2
20260906002534 23 6 8.0 14.5 0.00 0.15 0.05 49 1014.2
20260906002028 23 318 8.0 16.1 0.00 0.18 0.05 49 1014.1
20260906001527 23 298 8.0 16.1 0.00 0.18 0.05 48 1014.1
20260906001026 23 248 6.4 14.5 0.00 0.18 0.05 45 1014.1
20260906000525 23 273 6.4 12.9 0.00 0.18 0.05 46 1014.1
20260906000024 23 345 4.8 12.9 0.00 0.20 0.05 45 1014.1
20260905235520 23 232 4.8 12.9 0.00 0.20 0.05 47 1014.0
20260905235013 23 237 6.4 14.5 0.00 0.20 0.05 45 1013.9
20260905234730 23 291 6.4 14.5 0.00 0.20 0.05 47 1014.0
20260905234013 23 281 6.4 16.1 0.00 0.20 0.05 46 1014.0
20260905233511 23 328 6.4 16.1 0.00 0.23 0.05 46 1014.1
20260905233010 23 343 4.8 11.3 0.00 0.23 0.05 45 1014.1
20260905232508 23 312 6.4 12.9 0.00 0.25 0.05 48 1014.2
20260905232446 23 238 4.8 12.9 0.00 0.28 0.05 48 1014.4
20260905231500 23 249 6.4 12.9 0.00 0.33 0.05 48 1014.6
20260905230957 23 230 6.4 12.9 0.00 0.36 0.05 49 1014.6
20260905230457 23 286 4.8 12.9 0.00 0.38 0.05 48 1014.6
20260905225958 23 281 3.2 9.7 0.00 0.41 0.05 48 1014.6
20260905225455 24 328 4.8 14.5 0.00 0.41 0.05 47 1014.7
20260905224954 24 316 8.0 14.5 0.00 0.41 0.05 47 1014.7
20260905224457 24 12 8.0 14.5 0.00 0.41 0.05 46 1014.7
20260905223956 24 307 8.0 14.5 0.00 0.43 0.05 47 1014.7
20260905223453 24 305 6.4 14.5 0.00 0.43 0.05 47 1014.7
20260905223215 24 245 6.4 17.7 0.00 0.43 0.05 50 1014.8
20260905222456 24 240 8.0 19.3 0.00 0.43 0.05 48 1014.8
20260905221950 25 82 6.4 19.3 0.00 0.46 0.05 52 1014.8
20260905221450 24 241 6.4 16.1 0.00 0.48 0.05 51 1014.8
20260905220949 24 263 6.4 16.1 0.00 0.51 0.05 51 1014.7
20260905220447 24 286 4.8 12.9 0.00 0.53 0.05 50 1014.8
20260905215952 24 355 4.8 14.5 0.00 0.56 0.05 54 1014.7
20260905215447 24 234 6.4 14.5 0.00 0.56 0.05 54 1014.7
20260905215206 23 320 8.0 16.1 0.00 0.58 0.05 53 1014.8
20260905214445 23 228 8.0 16.1 0.00 0.58 0.05 51 1014.8
20260905213945 23 230 4.8 12.9 0.00 0.61 0.05 53 1014.8
20260905213443 23 247 1.6 11.3 0.00 0.66 0.05 55 1014.9
20260905213210 23 38 3.2 11.3 0.00 0.71 0.05 52 1015.0
20260905212447 23 14 6.4 12.9 0.00 0.74 0.05 57 1015.0
20260905211946 23 348 4.8 12.9 0.00 0.76 0.05 54 1015.1
20260905211443 23 247 4.8 12.9 0.00 0.79 0.05 55 1015.2
20260905210943 23 174 6.4 12.9 0.00 0.79 0.05 53 1015.2
20260905210704 22 242 4.8 12.9 0.00 0.81 0.05 58 1015.4
20260905205945 22 323 3.2 8.0 0.00 0.81 0.05 59 1015.4
20260905205445 22 235 4.8 14.5 0.00 0.84 0.05 60 1015.6
20260905204934 22 262 4.8 14.5 0.00 0.84 0.05 60 1015.6
20260905204429 22 251 4.8 8.0 0.00 0.86 0.05 59 1015.7
20260905203929 22 252 3.2 8.0 0.00 0.89 0.05 59 1015.7
20260905203432 22 274 1.6 6.4 0.00 0.91 0.05 60 1015.5
20260905202925 22 37 1.6 4.8 0.00 0.94 0.05 56 1015.6
20260905202645 22 128 3.2 8.0 0.00 0.97 0.05 56 1015.6
20260905201925 22 108 3.2 12.9 0.00 0.97 0.05 56 1015.7
20260905201423 22 155 1.6 12.9 0.00 0.99 0.05 58 1015.6
20260905200917 22 178 3.2 8.0 0.00 0.99 0.05 57 1015.7
20260905200413 22 301 4.8 11.3 0.00 0.99 0.05 60 1015.7
20260905195913 22 352 3.2 11.3 0.00 0.99 0.05 64 1015.7
20260905195409 22 325 3.2 11.3 0.00 1.02 0.05 62 1015.7
20260905194907 22 238 3.2 12.9 0.00 1.02 0.05 60 1015.8
20260905194403 22 250 3.2 12.9 0.00 1.02 0.05 61 1015.9
20260905193906 21 328 3.2 8.0 0.00 1.02 0.05 64 1016.0
20260905193353 21 124 3.2 11.3 0.00 1.02 0.05 63 1016.2
20260905192839 21 166 3.2 9.7 0.00 1.02 0.05 62 1016.1
20260905191839 20 131 3.2 8.0 0.00 1.02 0.05 64 1016.3
20260905191335 20 241 1.6 6.4 0.00 1.02 0.05 66 1016.2
20260905190823 20 198 3.2 8.0 0.00 1.02 0.05 68 1016.2
20260905190322 20 310 4.8 8.0 0.00 1.02 0.05 69 1016.3
20260905185819 20 308 3.2 8.0 0.00 1.02 0.05 72 1016.3
20260905185543 20 281 1.6 8.0 0.00 1.02 0.05 71 1016.3
20260905184817 20 295 1.6 6.4 0.00 1.02 0.05 73 1016.3
20260905184538 19 27 1.6 6.4 0.00 1.02 0.05 71 1016.4
20260905183811 19 105 1.6 6.4 0.00 1.02 0.05 72 1016.4
20260905183307 19 266 1.6 4.8 0.00 1.02 0.05 75 1016.4
20260905182809 18 123 1.6 9.7 0.00 1.02 0.05 75 1016.4
20260905182309 18 99 1.6 9.7 0.00 1.02 0.05 75 1016.4
20260905181804 18 33 3.2 12.9 0.00 1.02 0.05 79 1016.5
20260905181525 18 33 4.8 12.9 0.00 1.02 0.05 75 1016.5
20260905180800 18 240 1.6 8.0 0.00 1.02 0.05 76 1016.5
20260905180258 18 69 1.6 6.4 0.00 1.02 0.05 78 1016.4
20260905180025 18 335 1.6 6.4 0.00 1.02 0.05 79 1016.4
20260905175252 17 317 1.6 4.8 0.00 1.02 0.05 78 1016.5
20260905174747 17 48 3.2 12.9 0.00 1.02 0.05 79 1016.6
20260905174244 17 341 3.2 12.9 0.00 1.02 0.05 81 1016.7
20260905173737 17 299 1.6 6.4 0.00 1.02 0.05 79 1016.7
20260905173236 17 270 1.6 6.4 0.00 1.02 0.05 79 1016.7
20260905172954 17 255 1.6 4.8 0.00 1.02 0.05 77 1016.7
20260905172234 17 205 1.6 4.8 0.00 1.04 0.05 77 1016.7
20260905171728 17 205 1.6 4.8 0.00 1.04 0.05 78 1016.6
20260905171711 17 251 1.6 4.8 0.00 1.04 0.05 78 1016.7
20260905170727 17 167 3.2 8.0 0.00 1.04 0.05 78 1016.5
20260905170226 17 128 3.2 9.7 0.00 1.04 0.05 80 1016.6
20260905165721 16 129 3.2 9.7 0.00 1.04 0.05 81 1016.6
20260905165220 16 149 4.8 11.3 0.00 1.04 0.05 83 1016.5
20260905164722 16 158 6.4 11.3 0.00 1.07 0.05 83 1016.4
20260905164212 16 148 4.8 11.3 0.00 1.07 0.05 84 1016.4
20260905163708 15 141 4.8 14.5 0.00 1.09 0.05 84 1016.3
20260905163210 15 116 6.4 14.5 0.00 1.12 0.05 85 1016.4
20260905162708 15 104 6.4 14.5 0.00 1.14 0.05 87 1016.3
20260905162209 15 156 6.4 12.9 0.00 1.17 0.05 87 1016.4
20260905161708 14 176 8.0 12.9 0.00 1.19 0.05 87 1016.4
20260905161206 14 102 8.0 12.9 0.00 1.24 0.05 88 1016.3
20260905160708 14 97 8.0 14.5 0.00 1.27 0.05 89 1016.4
20260905160205 13 81 8.0 17.7 0.00 1.27 0.05 89 1016.4
20260905155705 13 85 6.4 17.7 0.00 1.27 0.05 91 1016.5
20260905155204 13 106 4.8 11.3 0.00 1.27 0.05 90 1016.5
20260905154931 13 121 4.8 12.9 0.00 1.30 0.05 90 1016.6
20260905154206 13 120 6.4 12.9 0.00 1.30 0.05 91 1016.5
20260905153702 13 85 6.4 14.5 0.00 1.30 0.05 91 1016.6
20260905153201 13 109 4.8 14.5 0.00 1.30 0.05 91 1016.7
20260905152707 12 130 6.4 12.9 0.00 1.30 0.05 92 1016.7
20260905152702 13 101 4.8 12.9 0.00 1.30 0.05 92 1016.7
20260905151700 12 146 4.8 11.3 0.00 1.30 0.05 93 1016.7
20260905151201 12 124 4.8 11.3 0.00 1.30 0.05 93 1016.7
20260905150658 12 124 3.2 9.7 0.00 1.30 0.05 94 1016.8
20260905150158 12 104 1.6 8.0 0.00 1.30 0.05 95 1016.7
20260905145658 12 100 3.2 6.4 0.00 1.30 0.05 95 1016.7
20260905145155 12 126 1.6 6.4 0.00 1.30 0.05 95 1016.8
20260905144657 12 100 1.6 4.8 0.00 1.30 0.05 95 1016.7
20260905144154 12 133 1.6 4.8 0.00 1.30 0.05 95 1016.8
20260905143652 12 119 0.0 6.4 0.00 1.30 0.05 96 1016.7
20260905143147 12 95 0.0 6.4 0.00 1.30 0.05 96 1016.7
20260905142652 12 113 0.0 3.2 0.00 1.30 0.05 96 1016.7
20260905142144 12 113 0.0 4.8 0.00 1.30 0.05 96 1016.7
20260905141646 11 112 0.0 4.8 0.00 1.30 0.05 96 1016.6
20260905141145 11 113 1.6 4.8 0.00 1.30 0.05 96 1016.6
20260905140645 11 128 1.6 4.8 0.00 1.30 0.05 96 1016.5
20260905140145 12 159 0.0 3.2 0.00 1.30 0.05 96 1016.5
20260905135643 12 159 0.0 0.0 0.00 1.30 0.05 95 1016.4
20260905135144 12 159 0.0 0.0 0.00 1.30 0.05 95 1016.4
20260905134629 12 159 0.0 0.0 0.00 1.30 0.05 95 1016.4
20260905134120 12 159 0.0 1.6 0.00 1.30 0.05 95 1016.3
20260905133613 12 159 0.0 1.6 0.00 1.30 0.05 95 1016.3
20260905133101 12 159 0.0 0.0 0.00 1.30 0.05 95 1016.3
20260905132600 12 159 0.0 0.0 0.00 1.30 0.05 95 1016.4
20260905132056 12 159 0.0 0.0 0.00 1.30 0.05 95 1016.4
20260905131555 12 159 0.0 0.0 0.03 1.30 0.05 95 1016.4
20260905131050 12 159 0.0 0.0 0.03 1.30 0.05 95 1016.3
20260905130551 12 160 0.0 0.0 0.03 1.30 0.05 95 1016.3
20260905130050 12 160 0.0 0.0 0.03 1.30 0.05 95 1016.3
20260905125812 12 160 0.0 0.0 0.03 1.30 0.05 95 1016.3
20260905125258 12 160 0.0 0.0 0.03 1.30 0.05 95 1016.2
20260905124538 12 160 0.0 0.0 0.05 1.30 0.05 95 1016.2
20260905124020 12 160 0.0 0.0 0.05 1.30 0.05 95 1016.1
20260905123510 12 160 0.0 1.6 0.05 1.30 0.05 95 1016.2
20260905123205 12 160 0.0 1.6 0.05 1.30 0.05 95 1016.1
20260905122433 12 160 0.0 0.0 0.05 1.30 0.05 95 1016.1
20260905121931 12 160 0.0 1.6 0.05 1.32 0.05 95 1016.1
20260905121428 12 160 0.0 3.2 0.03 1.30 0.03 95 1016.0
20260905120917 12 160 0.0 3.2 0.03 1.30 0.03 95 1016.1
20260905120414 12 205 1.6 3.2 0.03 1.30 0.03 95 1016.2
20260905115909 12 247 1.6 3.2 0.03 1.30 0.03 95 1016.1
20260905115347 12 273 1.6 4.8 0.03 1.30 0.03 95 1016.1
20260905114848 12 273 0.0 4.8 0.03 1.30 0.03 95 1016.2
20260905114350 12 281 0.0 4.8 0.00 1.27 0.00 95 1016.2
20260905113849 12 161 0.0 0.0 0.00 1.27 0.00 95 1016.2
20260905113552 12 161 0.0 0.0 0.00 1.27 0.00 94 1016.1
20260905113040 12 161 0.0 0.0 0.00 1.27 0.00 94 1016.1
20260905112307 12 161 0.0 0.0 0.00 1.27 0.00 94 1016.2
20260905111810 12 161 0.0 0.0 0.00 1.27 0.00 94 1016.1
20260905111304 12 161 0.0 1.6 0.00 1.27 0.00 94 1016.1
20260905110743 12 161 0.0 4.8 0.00 1.27 0.00 94 1016.0
20260905110227 12 161 1.6 4.8 0.00 1.27 0.00 94 1016.0
20260905105713 12 149 1.6 4.8 0.00 1.27 0.00 94 1015.9
20260905105356 12 149 3.2 6.4 0.00 1.27 0.00 94 1015.9
20260905104626 12 155 3.2 6.4 0.00 1.27 0.00 94 1016.0
20260905104112 12 147 1.6 6.4 0.00 1.27 0.00 94 1016.0
20260905103608 12 146 1.6 4.8 0.00 1.27 0.00 94 1015.9
20260905103107 12 126 1.6 4.8 0.00 1.27 0.00 94 1016.0
20260905102604 12 136 1.6 6.4 0.00 1.27 0.00 94 1016.0
20260905102101 12 164 1.6 6.4 0.00 1.27 0.00 94 1016.1
20260905101549 12 153 1.6 6.4 0.00 1.27 0.00 94 1016.0
20260905101040 12 124 1.6 3.2 0.00 1.27 0.00 94 1016.0
20260905100541 12 147 1.6 4.8 0.00 1.27 0.00 94 1016.1
20260905100038 12 145 3.2 6.4 0.00 1.27 0.00 94 1016.0
20260905095806 12 155 1.6 6.4 0.00 1.27 0.00 94 1016.1
20260905095039 12 136 1.6 4.8 0.00 1.27 0.00 94 1016.0
20260905094535 12 136 1.6 4.8 0.00 1.27 0.00 93 1016.0
20260905094248 12 135 3.2 4.8 0.00 1.27 0.00 93 1016.0
20260905093529 12 141 3.2 6.4 0.00 1.27 0.00 93 1016.0
20260905093032 12 149 3.2 8.0 0.00 1.27 0.00 93 1016.0
20260905092525 12 135 3.2 8.0 0.00 1.27 0.00 93 1016.1
20260905092025 12 134 3.2 6.4 0.00 1.27 0.00 93 1016.0
20260905091523 12 128 3.2 6.4 0.00 1.27 0.00 93 1016.1
20260905091019 12 129 3.2 6.4 0.00 1.27 0.00 93 1016.0
20260905090520 12 135 3.2 6.4 0.00 1.27 0.00 93 1015.9
20260905090019 12 133 4.8 6.4 0.00 1.27 0.00 93 1015.9
20260905085512 12 145 4.8 8.0 0.00 1.27 0.00 93 1015.9
20260905085009 12 135 4.8 8.0 0.00 1.27 0.00 93 1015.9
20260905084509 12 149 4.8 8.0 0.00 1.27 0.00 93 1016.0
20260905084007 12 155 4.8 8.0 0.00 1.27 0.00 93 1015.9
20260905083505 12 131 4.8 8.0 0.00 1.27 0.00 93 1015.8
20260905083003 12 150 3.2 6.4 0.00 1.27 0.00 93 1015.8
20260905082500 12 143 3.2 6.4 0.00 1.27 0.00 93 1015.7
20260905081957 12 133 4.8 8.0 0.00 1.27 0.00 93 1015.7
20260905081455 12 137 4.8 9.7 0.00 1.27 0.00 93 1015.7
20260905080955 12 135 4.8 9.7 0.00 1.27 0.00 93 1015.6
20260905080453 12 139 3.2 6.4 0.00 1.27 0.00 93 1015.6
20260905075952 12 132 3.2 6.4 0.00 1.30 0.00 93 1015.5
20260905075947 12 137 3.2 6.4 0.00 1.32 0.00 93 1015.6
20260905074946 12 132 3.2 6.4 0.00 1.37 0.00 93 1015.6
20260905074444 12 137 3.2 6.4 0.00 1.42 0.00 93 1015.5
20260905073946 12 121 3.2 6.4 0.00 1.47 0.00 93 1015.5
20260905073705 12 126 3.2 6.4 0.00 1.50 0.00 93 1015.6
20260905072938 12 151 4.8 6.4 0.00 1.52 0.00 93 1015.5
20260905072437 13 139 3.2 6.4 0.00 1.57 0.00 93 1015.5
20260905071939 13 126 3.2 6.4 0.00 1.60 0.00 94 1015.6
20260905071658 13 151 3.2 6.4 0.00 1.63 0.00 94 1015.6
20260905070941 12 133 3.2 6.4 0.00 1.63 0.00 94 1015.4